TimeCST,TemperatureF,Dew PointF,Humidity,Sea Level PressureIn,VisibilityMPH,Wind Direction,Wind SpeedMPH,Gust SpeedMPH,PrecipitationIn,Events,Conditions,WindDirDegrees,DateUTC
12:54 AM,21.0,12.9,71,30.12,10.0,SW,6.9,-,N/A,,Overcast,230,2014-01-18 06:54:00
1:54 AM,17.1,10.0,74,30.12,10.0,SW,4.6,-,N/A,,Clear,230,2014-01-18 07:54:00
2:54 AM,17.1,10.9,77,30.12,10.0,SSW,5.8,-,N/A,,Clear,210,2014-01-18 08:54:00
3:54 AM,17.1,10.9,77,30.10,10.0,SSW,5.8,-,N/A,,Clear,210,2014-01-18 09:54:00
4:54 AM,16.0,10.9,81,30.11,10.0,SW,5.8,-,N/A,,Clear,230,2014-01-18 10:54:00
5:54 AM,17.1,10.9,77,30.10,10.0,South,4.6,-,N/A,,Clear,190,2014-01-18 11:54:00
6:54 AM,19.0,12.0,74,30.07,10.0,South,6.9,-,N/A,,Clear,180,2014-01-18 12:54:00
7:54 AM,19.9,14.0,78,30.06,10.0,South,8.1,-,N/A,,Overcast,180,2014-01-18 13:54:00
8:54 AM,23.0,15.1,72,30.05,10.0,South,5.8,-,N/A,,Overcast,170,2014-01-18 14:54:00
9:54 AM,26.1,16.0,66,30.02,10.0,South,12.7,-,N/A,,Overcast,170,2014-01-18 15:54:00
10:54 AM,30.0,15.1,54,29.96,10.0,South,15.0,20.7,N/A,,Mostly Cloudy,170,2014-01-18 16:54:00
11:54 AM,30.9,15.1,52,29.87,10.0,SSE,12.7,-,N/A,,Overcast,160,2014-01-18 17:54:00
12:54 PM,32.0,15.1,50,29.78,10.0,SSE,15.0,24.2,N/A,,Mostly Cloudy,160,2014-01-18 18:54:00
1:54 PM,35.1,15.1,44,29.78,10.0,South,9.2,17.3,N/A,,Overcast,170,2014-01-18 19:54:00
2:54 PM,36.0,16.0,44,29.78,10.0,South,8.1,-,N/A,,Mostly Cloudy,170,2014-01-18 20:54:00
3:54 PM,36.0,18.0,48,29.81,10.0,SW,10.4,-,N/A,,Overcast,220,2014-01-18 21:54:00
4:14 PM,37.0,25.0,62,29.80,2.0,SW,15.0,26.5,0.00,Snow,Light Snow,230,2014-01-18 22:14:00
4:51 PM,35.6,28.4,75,29.80,10.0,SW,9.2,-,0.00,,Mostly Cloudy,230,2014-01-18 22:51:00
4:54 PM,35.1,28.9,78,29.82,10.0,SW,9.2,-,0.00,,Mostly Cloudy,230,2014-01-18 22:54:00
5:54 PM,35.1,28.0,76,29.82,10.0,SSW,5.8,-,N/A,,Overcast,200,2014-01-18 23:54:00
6:54 PM,34.0,27.0,75,29.83,10.0,SSW,3.5,-,N/A,,Overcast,210,2014-01-19 00:54:00
7:54 PM,34.0,26.1,73,29.82,10.0,Calm,Calm,-,N/A,,Overcast,0,2014-01-19 01:54:00
8:54 PM,35.1,28.0,76,29.83,10.0,WSW,3.5,-,0.00,,Overcast,240,2014-01-19 02:54:00
9:25 PM,37.9,32.0,79,29.82,7.0,West,18.4,27.6,0.03,Rain,Rain,260,2014-01-19 03:25:00
9:54 PM,37.0,33.1,86,29.83,10.0,WSW,9.2,-,0.04,Rain,Light Rain,250,2014-01-19 03:54:00
10:54 PM,37.0,32.0,82,29.84,10.0,West,11.5,-,0.01,,Overcast,270,2014-01-19 04:54:00
11:27 PM,37.0,32.0,82,29.83,10.0,West,15.0,25.3,N/A,,Overcast,270,2014-01-19 05:27:00
11:54 PM,37.0,32.0,82,29.85,10.0,West,11.5,-,N/A,,Overcast,280,2014-01-19 05:54:00